sat.trackr.live / text

‹ back to catalog

ONEWEB-0299

NORAD 49088 · 2021-075P

PAYLOAD ACTIVE UNKNOWN

§ Identity

Operator
Country
UK
Launch date
2021-08-21
Launch site
TYMSC
Launch vehicle
Mass (kg)
RCS (m²)

Purposes: comms

External: N2YO · Heavens-Above · Gunter

§ Orbital elements

Epoch: 2026-09-20T04:33:18.790848Z

Period
109.29 min
Inclination
87.9210°
Eccentricity
0.0001942
Mean motion
13.17649751 rev/d
Perigee alt
1,192.2 km
Apogee alt
1,195.2 km
Semi-major
7,571.8 km
B*
1.1054e-4
RAAN
346.9911°
Arg perigee
105.4092°
Mean anomaly
254.7254°
Rev number
24,611

§ Raw data

ONEWEB-02991 49088U 21075P   26263.18980082  .00000056  00000+0  11054-3 0  99932 49088  87.9210 346.9911 0001942 105.4092 254.7254 13.17649751246115

JSON: /api/v1/satellites/49088 · /tle

For live sub-satellite position, see the globe view (requires WebGL).

§ Visibility from observer

Set your observer location to see the next 7 days of passes ≥ 10°. The values pass through the URL so the page stays shareable.

No JS? Fill the form by hand. The geolocation button needs JavaScript.